Time,TemperatureF,DewpointF,PressureIn,WindDirection,WindDirectionDegrees,WindSpeedMPH,WindSpeedGustMPH,Humidity,HourlyPrecipIn,Conditions,Clouds,dailyrainin,SoftwareType,DateUTC
2013-04-29 00:01:00,74.8,65.6,30.06,SSE,147,4.0,4.0,73,0.00,,BKN047,0.00,VWS V14.01,2013-04-29 04:01:00,
2013-04-29 00:06:00,74.8,65.6,30.07,ESE,118,6.0,11.0,73,0.00,,BKN047,0.00,VWS V14.01,2013-04-29 04:06:00,
2013-04-29 00:11:00,74.8,65.6,30.06,SE,132,2.0,11.0,73,0.00,,BKN047,0.00,VWS V14.01,2013-04-29 04:11:00,
2013-04-29 00:16:00,74.8,65.6,30.07,SE,134,6.0,11.0,73,0.00,,BKN047,0.00,VWS V14.01,2013-04-29 04:16:00,
2013-04-29 00:21:00,74.8,65.6,30.06,SSE,154,2.0,11.0,73,0.00,,BKN047,0.00,VWS V14.01,2013-04-29 04:21:00,
2013-04-29 00:26:00,74.8,65.6,30.07,SE,138,2.0,11.0,73,0.00,,BKN047,0.00,VWS V14.01,2013-04-29 04:26:00,
2013-04-29 00:31:00,74.8,66.0,30.07,ESE,112,7.0,11.0,74,0.00,,BKN047,0.00,VWS V14.01,2013-04-29 04:31:00,
2013-04-29 00:36:00,74.9,66.1,30.06,ESE,112,5.0,11.0,74,0.00,,BKN047,0.00,VWS V14.01,2013-04-29 04:36:00,
2013-04-29 00:41:00,74.9,66.1,30.06,ESE,106,5.0,13.0,74,0.00,,BKN047,0.00,VWS V14.01,2013-04-29 04:41:00,
2013-04-29 00:46:00,75.0,66.2,30.06,SE,141,3.0,13.0,74,0.00,,BKN047,0.00,VWS V14.01,2013-04-29 04:46:00,
2013-04-29 00:51:00,75.0,66.2,30.07,ESE,108,3.0,13.0,74,0.00,,BKN047,0.00,VWS V14.01,2013-04-29 04:51:00,
2013-04-29 00:56:00,75.0,66.2,30.06,SE,141,4.0,13.0,74,0.00,,BKN047,0.00,VWS V14.01,2013-04-29 04:56:00,
2013-04-29 01:01:00,75.0,66.2,30.07,ESE,114,4.0,6.0,74,0.00,,SCT050,0.00,VWS V14.01,2013-04-29 05:01:00,
2013-04-29 01:06:00,75.0,66.6,30.07,ESE,123,2.0,10.0,75,0.00,,SCT050,0.00,VWS V14.01,2013-04-29 05:06:00,
2013-04-29 01:11:00,75.0,66.9,30.07,SE,130,2.0,10.0,76,0.00,,SCT050,0.00,VWS V14.01,2013-04-29 05:11:00,
2013-04-29 01:16:00,75.0,66.6,30.07,SE,136,3.0,11.0,75,0.00,,SCT050,0.00,VWS V14.01,2013-04-29 05:16:00,
2013-04-29 01:21:00,74.9,66.4,30.06,ESE,122,3.0,11.0,75,0.00,,SCT050,0.00,VWS V14.01,2013-04-29 05:21:00,
2013-04-29 01:26:00,74.8,66.3,30.06,ESE,113,4.0,11.0,75,0.00,,SCT050,0.00,VWS V14.01,2013-04-29 05:26:00,
2013-04-29 01:31:00,74.8,66.3,30.07,SE,125,9.0,12.0,75,0.00,,SCT050,0.00,VWS V14.01,2013-04-29 05:31:00,
2013-04-29 01:36:00,74.8,66.3,30.06,ESE,118,3.0,12.0,75,0.00,,SCT050,0.00,VWS V14.01,2013-04-29 05:36:00,
2013-04-29 01:41:00,74.8,66.3,30.05,ESE,117,8.0,12.0,75,0.00,,SCT050,0.00,VWS V14.01,2013-04-29 05:41:00,
2013-04-29 01:46:00,74.8,67.1,30.05,ESE,119,0.0,12.0,77,0.00,,SCT050,0.00,VWS V14.01,2013-04-29 05:46:00,
2013-04-29 01:51:00,74.8,67.1,30.05,East,94,5.0,12.0,77,0.00,,SCT050,0.00,VWS V14.01,2013-04-29 05:51:00,
2013-04-29 01:56:00,74.7,67.0,30.04,SE,130,1.0,12.0,77,0.00,,SCT050,0.00,VWS V14.01,2013-04-29 05:56:00,
2013-04-29 02:01:00,74.7,66.6,30.05,ESE,111,4.0,7.0,76,0.00,,BKN060,0.00,VWS V14.01,2013-04-29 06:01:00,
2013-04-29 02:06:00,74.7,66.6,30.04,ESE,118,6.0,8.0,76,0.00,,BKN060,0.00,VWS V14.01,2013-04-29 06:06:00,
2013-04-29 02:11:00,74.6,66.5,30.05,ESE,105,2.0,8.0,76,0.00,,BKN060,0.00,VWS V14.01,2013-04-29 06:11:00,
2013-04-29 02:16:00,74.6,66.5,30.04,ESE,113,6.0,8.0,76,0.00,,BKN060,0.00,VWS V14.01,2013-04-29 06:16:00,
2013-04-29 02:21:00,74.6,66.5,30.03,SE,129,4.0,9.0,76,0.00,,BKN060,0.00,VWS V14.01,2013-04-29 06:21:00,
2013-04-29 02:26:00,74.5,66.4,30.03,SE,140,2.0,10.0,76,0.00,,BKN060,0.00,VWS V14.01,2013-04-29 06:26:00,
2013-04-29 02:31:00,74.5,66.8,30.03,SE,140,4.0,10.0,77,0.00,,BKN060,0.00,VWS V14.01,2013-04-29 06:31:00,
2013-04-29 02:36:00,74.5,66.4,30.04,ESE,105,2.0,10.0,76,0.00,,BKN060,0.00,VWS V14.01,2013-04-29 06:36:00,
2013-04-29 02:41:00,74.4,66.3,30.03,SE,132,5.0,12.0,76,0.00,,BKN060,0.00,VWS V14.01,2013-04-29 06:41:00,
2013-04-29 02:46:00,74.5,66.4,30.03,ESE,117,3.0,12.0,76,0.00,,BKN060,0.00,VWS V14.01,2013-04-29 06:46:00,
2013-04-29 02:51:00,74.6,66.9,30.02,SE,132,4.0,12.0,77,0.00,,BKN060,0.00,VWS V14.01,2013-04-29 06:51:00,
2013-04-29 02:56:00,74.7,67.0,30.03,SE,138,3.0,12.0,77,0.00,,BKN060,0.00,VWS V14.01,2013-04-29 06:56:00,
2013-04-29 03:01:00,74.8,66.7,30.02,SE,131,7.0,12.0,76,0.00,,BKN070,0.00,VWS V14.01,2013-04-29 07:01:00,
2013-04-29 03:06:00,74.8,66.7,30.02,SE,130,4.0,12.0,76,0.00,,BKN070,0.00,VWS V14.01,2013-04-29 07:06:00,
2013-04-29 03:11:00,74.8,67.1,30.02,ESE,111,8.0,12.0,77,0.00,,BKN070,0.00,VWS V14.01,2013-04-29 07:11:00,
2013-04-29 03:16:00,74.8,66.7,30.02,SE,141,5.0,12.0,76,0.00,,BKN070,0.00,VWS V14.01,2013-04-29 07:16:00,
2013-04-29 03:21:00,74.8,66.7,30.02,ESE,118,6.0,12.0,76,0.00,,BKN070,0.00,VWS V14.01,2013-04-29 07:21:00,
2013-04-29 03:26:00,74.7,66.6,30.02,SE,145,5.0,12.0,76,0.00,,BKN070,0.00,VWS V14.01,2013-04-29 07:26:00,
2013-04-29 03:31:00,74.7,66.6,30.02,ESE,122,5.0,12.0,76,0.00,,BKN070,0.00,VWS V14.01,2013-04-29 07:31:00,
2013-04-29 03:36:00,74.7,67.0,30.01,SE,134,4.0,12.0,77,0.00,,BKN070,0.00,VWS V14.01,2013-04-29 07:36:00,
2013-04-29 03:41:00,74.6,66.9,30.01,ESE,111,4.0,12.0,77,0.00,,BKN070,0.00,VWS V14.01,2013-04-29 07:41:00,
2013-04-29 03:46:00,74.7,67.0,30.01,SSE,152,2.0,12.0,77,0.00,,BKN070,0.00,VWS V14.01,2013-04-29 07:46:00,
2013-04-29 03:51:00,74.7,67.0,30.02,SE,137,3.0,12.0,77,0.00,,BKN070,0.00,VWS V14.01,2013-04-29 07:51:00,
2013-04-29 03:56:00,74.6,66.5,30.02,SSE,147,1.0,12.0,76,0.00,,BKN070,0.00,VWS V14.01,2013-04-29 07:56:00,
2013-04-29 04:01:00,74.6,66.5,30.01,ESE,118,5.0,7.0,76,0.00,,BKN043,0.00,VWS V14.01,2013-04-29 08:01:00,
2013-04-29 04:06:00,74.6,66.9,30.02,ESE,105,4.0,7.0,77,0.00,,BKN043,0.00,VWS V14.01,2013-04-29 08:06:00,
2013-04-29 04:11:00,74.7,67.0,30.02,SE,138,2.0,7.0,77,0.00,,BKN043,0.00,VWS V14.01,2013-04-29 08:11:00,
2013-04-29 04:16:00,74.7,67.0,30.02,SSE,165,3.0,7.0,77,0.00,,BKN043,0.00,VWS V14.01,2013-04-29 08:16:00,
2013-04-29 04:21:00,74.7,67.0,30.01,SSE,165,0.0,7.0,77,0.00,,BKN043,0.00,VWS V14.01,2013-04-29 08:21:00,
2013-04-29 04:26:00,74.6,66.9,30.01,SSE,167,0.0,7.0,77,0.00,,BKN043,0.00,VWS V14.01,2013-04-29 08:26:00,
2013-04-29 04:31:00,74.6,66.9,30.02,SSE,154,4.0,7.0,77,0.00,,BKN043,0.00,VWS V14.01,2013-04-29 08:31:00,
2013-04-29 04:36:00,74.5,66.4,30.01,SE,142,1.0,7.0,76,0.00,,BKN043,0.00,VWS V14.01,2013-04-29 08:36:00,
2013-04-29 04:41:00,74.4,66.7,30.01,SSE,158,0.0,7.0,77,0.00,,BKN043,0.00,VWS V14.01,2013-04-29 08:41:00,
2013-04-29 04:46:00,74.4,66.7,30.02,SSE,155,3.0,7.0,77,0.00,,BKN043,0.00,VWS V14.01,2013-04-29 08:46:00,
2013-04-29 04:51:00,74.3,66.6,30.01,SE,128,5.0,7.0,77,0.00,,BKN043,0.00,VWS V14.01,2013-04-29 08:51:00,
2013-04-29 04:56:00,74.3,66.6,30.02,SE,127,0.0,7.0,77,0.00,,BKN043,0.00,VWS V14.01,2013-04-29 08:56:00,
2013-04-29 05:01:00,74.2,66.5,30.01,SSE,150,0.0,0.0,77,0.00,,FEW029,0.00,VWS V14.01,2013-04-29 09:01:00,
2013-04-29 05:06:00,74.1,66.8,30.01,ESE,122,1.0,4.0,78,0.00,,FEW029,0.00,VWS V14.01,2013-04-29 09:06:00,
2013-04-29 05:11:00,74.0,66.3,30.02,SE,141,4.0,5.0,77,0.00,,FEW029,0.00,VWS V14.01,2013-04-29 09:11:00,
2013-04-29 05:16:00,74.0,66.3,30.01,SE,142,0.0,5.0,77,0.00,,FEW029,0.00,VWS V14.01,2013-04-29 09:16:00,
2013-04-29 05:21:00,73.9,66.2,30.01,SE,145,0.0,5.0,77,0.00,,FEW029,0.00,VWS V14.01,2013-04-29 09:21:00,
2013-04-29 05:26:00,73.9,66.2,30.01,SSE,148,2.0,8.0,77,0.00,,FEW029,0.00,VWS V14.01,2013-04-29 09:26:00,
2013-04-29 05:31:00,73.8,66.2,30.02,SE,128,5.0,8.0,77,0.00,,FEW029,0.00,VWS V14.01,2013-04-29 09:31:00,
2013-04-29 05:36:00,73.7,66.1,30.01,SSE,149,0.0,8.0,77,0.00,,FEW029,0.00,VWS V14.01,2013-04-29 09:36:00,
2013-04-29 05:41:00,73.7,66.1,30.01,SE,128,0.0,8.0,77,0.00,,FEW029,0.00,VWS V14.01,2013-04-29 09:41:00,
2013-04-29 05:46:00,73.7,66.1,30.01,SE,127,0.0,8.0,77,0.00,,FEW029,0.00,VWS V14.01,2013-04-29 09:46:00,
2013-04-29 05:51:00,73.6,65.9,30.01,SE,135,2.0,8.0,77,0.00,,FEW029,0.00,VWS V14.01,2013-04-29 09:51:00,
2013-04-29 05:56:00,73.6,65.9,30.02,SE,134,1.0,8.0,77,0.00,,FEW029,0.00,VWS V14.01,2013-04-29 09:56:00,
2013-04-29 06:01:00,73.6,65.9,30.01,SE,134,3.0,3.0,77,0.00,,CLR,0.00,VWS V14.01,2013-04-29 10:01:00,
2013-04-29 06:06:00,73.5,65.9,30.01,ESE,121,2.0,7.0,77,0.00,,CLR,0.00,VWS V14.01,2013-04-29 10:06:00,
2013-04-29 06:11:00,73.5,65.9,30.02,SE,126,0.0,7.0,77,0.00,,CLR,0.00,VWS V14.01,2013-04-29 10:11:00,
2013-04-29 06:16:00,73.4,65.8,30.03,SSE,168,0.0,7.0,77,0.00,,CLR,0.00,VWS V14.01,2013-04-29 10:16:00,
2013-04-29 06:21:00,73.3,65.7,30.03,SE,146,0.0,7.0,77,0.00,,CLR,0.00,VWS V14.01,2013-04-29 10:21:00,
2013-04-29 06:26:00,73.2,65.6,30.03,South,169,2.0,7.0,77,0.00,,CLR,0.00,VWS V14.01,2013-04-29 10:26:00,
2013-04-29 06:31:00,73.2,65.6,30.04,SSE,163,0.0,7.0,77,0.00,,CLR,0.00,VWS V14.01,2013-04-29 10:31:00,
2013-04-29 06:36:00,73.2,65.6,30.03,SSE,160,2.0,7.0,77,0.00,,CLR,0.00,VWS V14.01,2013-04-29 10:36:00,
2013-04-29 06:41:00,73.1,65.8,30.03,SE,140,0.0,7.0,78,0.00,,CLR,0.00,VWS V14.01,2013-04-29 10:41:00,
2013-04-29 06:46:00,73.1,65.5,30.02,SSE,153,3.0,7.0,77,0.00,,CLR,0.00,VWS V14.01,2013-04-29 10:46:00,
2013-04-29 06:51:00,73.0,65.4,30.03,SE,137,0.0,7.0,77,0.00,,CLR,0.00,VWS V14.01,2013-04-29 10:51:00,
2013-04-29 06:56:00,73.0,65.4,30.03,SSE,159,0.0,7.0,77,0.00,,CLR,0.00,VWS V14.01,2013-04-29 10:56:00,
2013-04-29 07:01:00,72.9,64.9,30.03,SE,137,1.0,3.0,76,0.00,,CLR,0.00,VWS V14.01,2013-04-29 11:01:00,
2013-04-29 07:06:00,72.9,65.3,30.03,SE,143,0.0,4.0,77,0.00,,CLR,0.00,VWS V14.01,2013-04-29 11:06:00,
2013-04-29 07:11:00,72.9,65.3,30.03,SSE,148,3.0,5.0,77,0.00,,CLR,0.00,VWS V14.01,2013-04-29 11:11:00,
2013-04-29 07:16:00,72.9,65.3,30.04,SE,145,4.0,5.0,77,0.00,,CLR,0.00,VWS V14.01,2013-04-29 11:16:00,
2013-04-29 07:21:00,73.0,65.4,30.04,South,174,0.0,5.0,77,0.00,,CLR,0.00,VWS V14.01,2013-04-29 11:21:00,
2013-04-29 07:26:00,73.1,65.5,30.04,South,173,0.0,5.0,77,0.00,,CLR,0.00,VWS V14.01,2013-04-29 11:26:00,
2013-04-29 07:31:00,73.1,65.5,30.04,SE,140,2.0,6.0,77,0.00,,CLR,0.00,VWS V14.01,2013-04-29 11:31:00,
2013-04-29 07:36:00,73.2,65.2,30.04,SSE,152,2.0,6.0,76,0.00,,CLR,0.00,VWS V14.01,2013-04-29 11:36:00,
2013-04-29 07:41:00,73.3,65.3,30.03,SSE,149,3.0,6.0,76,0.00,,CLR,0.00,VWS V14.01,2013-04-29 11:41:00,
2013-04-29 07:46:00,73.4,65.8,30.03,ESE,117,4.0,6.0,77,0.00,,CLR,0.00,VWS V14.01,2013-04-29 11:46:00,
2013-04-29 07:51:00,73.6,65.6,30.03,SSE,153,0.0,7.0,76,0.00,,CLR,0.00,VWS V14.01,2013-04-29 11:51:00,
2013-04-29 07:56:00,73.8,66.2,30.04,SSE,155,0.0,7.0,77,0.00,,CLR,0.00,VWS V14.01,2013-04-29 11:56:00,
2013-04-29 08:01:00,74.0,66.3,30.04,SE,140,6.0,6.0,77,0.00,,CLR,0.00,VWS V14.01,2013-04-29 12:01:00,
2013-04-29 08:06:00,74.3,65.9,30.04,SE,133,4.0,8.0,75,0.00,,CLR,0.00,VWS V14.01,2013-04-29 12:06:00,
2013-04-29 08:11:00,74.6,66.2,30.04,SE,132,5.0,9.0,75,0.00,,CLR,0.00,VWS V14.01,2013-04-29 12:11:00,
2013-04-29 08:16:00,74.9,65.7,30.04,SE,139,4.0,9.0,73,0.00,,CLR,0.00,VWS V14.01,2013-04-29 12:16:00,
2013-04-29 08:21:00,75.1,65.5,30.04,SE,137,6.0,10.0,72,0.00,,CLR,0.00,VWS V14.01,2013-04-29 12:21:00,
2013-04-29 08:26:00,75.4,65.3,30.04,SSE,155,1.0,10.0,71,0.00,,CLR,0.00,VWS V14.01,2013-04-29 12:26:00,
2013-04-29 08:31:00,75.6,65.9,30.04,ESE,120,4.0,10.0,72,0.00,,CLR,0.00,VWS V14.01,2013-04-29 12:31:00,
2013-04-29 08:36:00,75.8,66.1,30.04,SE,144,3.0,10.0,72,0.00,,CLR,0.00,VWS V14.01,2013-04-29 12:36:00,
2013-04-29 08:41:00,75.9,65.8,30.04,SE,135,5.0,13.0,71,0.00,,CLR,0.00,VWS V14.01,2013-04-29 12:41:00,
2013-04-29 08:46:00,76.1,65.6,30.04,ESE,123,6.0,13.0,70,0.00,,CLR,0.00,VWS V14.01,2013-04-29 12:46:00,
2013-04-29 08:51:00,76.3,65.8,30.04,SE,133,4.0,14.0,70,0.00,,CLR,0.00,VWS V14.01,2013-04-29 12:51:00,
2013-04-29 08:56:00,76.5,66.0,30.04,SE,131,3.0,14.0,70,0.00,,CLR,0.00,VWS V14.01,2013-04-29 12:56:00,
2013-04-29 09:01:00,76.6,65.7,30.04,SE,144,5.0,8.0,69,0.00,,CLR,0.00,VWS V14.01,2013-04-29 13:01:00,
2013-04-29 09:06:00,76.8,66.3,30.04,ESE,116,8.0,8.0,70,0.00,,CLR,0.00,VWS V14.01,2013-04-29 13:06:00,
2013-04-29 09:11:00,76.9,66.4,30.04,SE,139,4.0,10.0,70,0.00,,CLR,0.00,VWS V14.01,2013-04-29 13:11:00,
2013-04-29 09:16:00,77.1,65.7,30.03,SSE,147,3.0,11.0,68,0.00,,CLR,0.00,VWS V14.01,2013-04-29 13:16:00,
2013-04-29 09:21:00,77.2,65.8,30.04,SSE,163,3.0,11.0,68,0.00,,CLR,0.00,VWS V14.01,2013-04-29 13:21:00,
2013-04-29 09:26:00,77.3,65.5,30.05,South,176,5.0,11.0,67,0.00,,CLR,0.00,VWS V14.01,2013-04-29 13:26:00,
2013-04-29 09:31:00,77.4,65.6,30.04,SE,129,6.0,11.0,67,0.00,,CLR,0.00,VWS V14.01,2013-04-29 13:31:00,
2013-04-29 09:36:00,77.7,65.9,30.05,SE,131,8.0,11.0,67,0.00,,CLR,0.00,VWS V14.01,2013-04-29 13:36:00,
2013-04-29 09:41:00,77.8,66.0,30.05,SSE,155,3.0,11.0,67,0.00,,CLR,0.00,VWS V14.01,2013-04-29 13:41:00,
2013-04-29 09:46:00,77.7,65.9,30.05,SSE,157,2.0,11.0,67,0.00,,CLR,0.00,VWS V14.01,2013-04-29 13:46:00,
2013-04-29 09:51:00,77.7,66.3,30.05,South,175,3.0,11.0,68,0.00,,CLR,0.00,VWS V14.01,2013-04-29 13:51:00,
2013-04-29 09:56:00,77.8,66.4,30.05,SE,146,5.0,11.0,68,0.00,,CLR,0.00,VWS V14.01,2013-04-29 13:56:00,
2013-04-29 10:00:00,77.9,66.5,30.05,SSE,165,5.0,7.0,68,0.00,,BKN035,0.00,VWS V14.01,2013-04-29 14:00:00,
2013-04-29 10:06:00,78.0,66.2,30.05,SSE,150,1.0,10.0,67,0.00,,BKN035,0.00,VWS V14.01,2013-04-29 14:06:00,
2013-04-29 10:10:00,78.2,66.4,30.06,SE,138,10.0,11.0,67,0.00,,BKN035,0.00,VWS V14.01,2013-04-29 14:10:00,
2013-04-29 10:15:00,78.3,66.4,30.05,SE,134,5.0,13.0,67,0.00,,BKN035,0.00,VWS V14.01,2013-04-29 14:15:00,
2013-04-29 10:20:00,78.6,67.2,30.05,SSE,152,4.0,13.0,68,0.00,,BKN035,0.00,VWS V14.01,2013-04-29 14:20:00,
2013-04-29 10:26:00,78.9,67.9,30.05,SE,137,5.0,13.0,69,0.00,,BKN035,0.00,VWS V14.01,2013-04-29 14:26:00,
2013-04-29 10:31:00,79.1,67.2,30.05,SE,141,5.0,15.0,67,0.00,,BKN035,0.00,VWS V14.01,2013-04-29 14:31:00,
2013-04-29 10:36:00,79.5,67.6,30.05,SE,141,10.0,15.0,67,0.00,,BKN035,0.00,VWS V14.01,2013-04-29 14:36:00,
2013-04-29 10:41:00,79.7,67.3,30.05,East,90,6.0,15.0,66,0.00,,BKN035,0.00,VWS V14.01,2013-04-29 14:41:00,
2013-04-29 10:46:00,79.9,68.0,30.06,ESE,103,6.0,15.0,67,0.00,,BKN035,0.00,VWS V14.01,2013-04-29 14:46:00,
2013-04-29 10:51:00,80.2,67.4,30.06,SE,139,7.0,17.0,65,0.00,,BKN035,0.00,VWS V14.01,2013-04-29 14:51:00,
2013-04-29 10:56:00,80.4,67.6,30.06,ESE,103,5.0,17.0,65,0.00,,BKN035,0.00,VWS V14.01,2013-04-29 14:56:00,
2013-04-29 11:01:00,80.7,67.8,30.06,East,93,8.0,12.0,65,0.00,,BKN043,0.00,VWS V14.01,2013-04-29 15:01:00,
2013-04-29 11:06:00,80.7,67.4,30.06,SE,125,5.0,12.0,64,0.00,,BKN043,0.00,VWS V14.01,2013-04-29 15:06:00,
2013-04-29 11:11:00,80.7,67.4,30.07,SE,131,5.0,12.0,64,0.00,,BKN043,0.00,VWS V14.01,2013-04-29 15:11:00,
2013-04-29 11:16:00,80.6,67.3,30.06,SE,144,11.0,13.0,64,0.00,,BKN043,0.00,VWS V14.01,2013-04-29 15:16:00,
2013-04-29 11:21:00,80.7,67.4,30.06,ESE,111,9.0,13.0,64,0.00,,BKN043,0.00,VWS V14.01,2013-04-29 15:21:00,
2013-04-29 11:25:00,80.9,67.6,30.07,East,98,8.0,13.0,64,0.00,,BKN043,0.00,VWS V14.01,2013-04-29 15:25:00,
2013-04-29 11:31:00,81.0,68.1,30.07,ESE,103,6.0,14.0,65,0.00,,BKN043,0.00,VWS V14.01,2013-04-29 15:31:00,
2013-04-29 11:36:00,81.0,68.1,30.07,SSE,164,2.0,16.0,65,0.00,,BKN043,0.00,VWS V14.01,2013-04-29 15:36:00,
2013-04-29 11:41:00,80.8,67.9,30.08,ESE,104,9.0,16.0,65,0.00,,BKN043,0.00,VWS V14.01,2013-04-29 15:41:00,
2013-04-29 11:46:00,80.5,68.1,30.07,SE,135,14.0,16.0,66,0.00,,BKN043,0.00,VWS V14.01,2013-04-29 15:46:00,
2013-04-29 11:51:00,80.4,68.4,30.06,ESE,118,7.0,16.0,67,0.00,,BKN043,0.00,VWS V14.01,2013-04-29 15:51:00,
2013-04-29 11:56:00,80.4,68.4,30.06,SE,145,8.0,19.0,67,0.00,,BKN043,0.00,VWS V14.01,2013-04-29 15:56:00,
2013-04-29 12:01:00,80.5,68.5,30.06,SSE,156,7.0,7.0,67,0.00,,BKN060,0.00,VWS V14.01,2013-04-29 16:01:00,
2013-04-29 12:06:00,80.7,68.7,30.06,SSE,149,11.0,18.0,67,0.00,,BKN060,0.00,VWS V14.01,2013-04-29 16:06:00,
2013-04-29 12:11:00,80.7,68.3,30.05,SE,137,9.0,18.0,66,0.00,,BKN060,0.00,VWS V14.01,2013-04-29 16:11:00,
2013-04-29 12:16:00,81.0,69.0,30.06,SE,142,7.0,20.0,67,0.00,,BKN060,0.00,VWS V14.01,2013-04-29 16:16:00,
2013-04-29 12:21:00,81.3,69.3,30.06,ESE,106,5.0,20.0,67,0.00,,BKN060,0.00,VWS V14.01,2013-04-29 16:21:00,
2013-04-29 12:26:00,81.6,69.2,30.06,SE,126,7.0,20.0,66,0.00,,BKN060,0.00,VWS V14.01,2013-04-29 16:26:00,
2013-04-29 12:31:00,81.8,68.4,30.05,ESE,113,14.0,20.0,64,0.00,,BKN060,0.00,VWS V14.01,2013-04-29 16:31:00,
2013-04-29 12:36:00,81.8,68.9,30.05,ESE,109,7.0,20.0,65,0.00,,BKN060,0.00,VWS V14.01,2013-04-29 16:36:00,
2013-04-29 12:41:00,82.0,69.1,30.05,ESE,110,9.0,22.0,65,0.00,,BKN060,0.00,VWS V14.01,2013-04-29 16:41:00,
2013-04-29 12:46:00,82.2,69.3,30.05,ESE,102,9.0,22.0,65,0.00,,BKN060,0.00,VWS V14.01,2013-04-29 16:46:00,
2013-04-29 12:51:00,82.5,69.1,30.05,ESE,115,13.0,22.0,64,0.00,,BKN060,0.00,VWS V14.01,2013-04-29 16:51:00,
2013-04-29 12:56:00,82.6,69.2,30.05,SSE,161,5.0,22.0,64,0.00,,BKN060,0.00,VWS V14.01,2013-04-29 16:56:00,
2013-04-29 13:01:00,82.7,69.3,30.04,SE,126,6.0,14.0,64,0.00,,SCT055,0.00,VWS V14.01,2013-04-29 17:01:00,
2013-04-29 13:06:00,82.6,69.7,30.04,SE,124,4.0,16.0,65,0.00,,SCT055,0.00,VWS V14.01,2013-04-29 17:06:00,
2013-04-29 13:11:00,82.6,69.2,30.04,ESE,107,8.0,18.0,64,0.00,,SCT055,0.00,VWS V14.01,2013-04-29 17:11:00,
2013-04-29 13:16:00,82.2,69.3,30.03,ESE,110,10.0,18.0,65,0.00,,SCT055,0.00,VWS V14.01,2013-04-29 17:16:00,
2013-04-29 13:21:00,81.8,69.3,30.04,ESE,118,8.0,18.0,66,0.00,,SCT055,0.00,VWS V14.01,2013-04-29 17:21:00,
2013-04-29 13:26:00,81.7,69.2,30.04,SE,146,6.0,18.0,66,0.00,,SCT055,0.00,VWS V14.01,2013-04-29 17:26:00,
2013-04-29 13:31:00,81.8,69.8,30.04,SE,129,4.0,21.0,67,0.00,,SCT055,0.00,VWS V14.01,2013-04-29 17:31:00,
2013-04-29 13:36:00,82.0,70.0,30.03,SE,124,7.0,21.0,67,0.00,,SCT055,0.00,VWS V14.01,2013-04-29 17:36:00,
2013-04-29 13:41:00,82.2,70.2,30.03,SSE,152,4.0,21.0,67,0.00,,SCT055,0.00,VWS V14.01,2013-04-29 17:41:00,
2013-04-29 13:46:00,82.6,69.7,30.03,ESE,121,8.0,21.0,65,0.00,,SCT055,0.00,VWS V14.01,2013-04-29 17:46:00,
2013-04-29 13:51:00,82.8,70.3,30.03,ESE,111,5.0,21.0,66,0.00,,SCT055,0.00,VWS V14.01,2013-04-29 17:51:00,
2013-04-29 13:56:00,82.8,70.7,30.02,East,100,13.0,21.0,67,0.00,,SCT055,0.00,VWS V14.01,2013-04-29 17:56:00,
2013-04-29 14:01:00,82.5,70.4,30.02,SE,125,9.0,13.0,67,0.00,,CLR,0.00,VWS V14.01,2013-04-29 18:01:00,
2013-04-29 14:06:00,82.3,69.8,30.02,ESE,117,9.0,17.0,66,0.00,,CLR,0.00,VWS V14.01,2013-04-29 18:06:00,
2013-04-29 14:11:00,82.0,69.5,30.01,SE,133,8.0,19.0,66,0.00,,CLR,0.00,VWS V14.01,2013-04-29 18:11:00,
2013-04-29 14:16:00,82.0,70.4,30.01,ESE,115,17.0,19.0,68,0.00,,CLR,0.00,VWS V14.01,2013-04-29 18:16:00,
2013-04-29 14:21:00,82.2,70.2,30.01,SSE,148,7.0,19.0,67,0.00,,CLR,0.00,VWS V14.01,2013-04-29 18:21:00,
2013-04-29 14:26:00,82.6,70.1,30.01,SE,139,9.0,19.0,66,0.00,,CLR,0.00,VWS V14.01,2013-04-29 18:26:00,
2013-04-29 14:31:00,82.8,69.8,30.02,ESE,113,7.0,19.0,65,0.00,,CLR,0.00,VWS V14.01,2013-04-29 18:31:00,
2013-04-29 14:36:00,82.7,69.8,30.01,SE,130,6.0,19.0,65,0.00,,CLR,0.00,VWS V14.01,2013-04-29 18:36:00,
2013-04-29 14:41:00,82.7,69.3,30.01,SE,130,8.0,19.0,64,0.00,,CLR,0.00,VWS V14.01,2013-04-29 18:41:00,
2013-04-29 14:46:00,82.6,69.2,30.01,SE,134,4.0,19.0,64,0.00,,CLR,0.00,VWS V14.01,2013-04-29 18:46:00,
2013-04-29 14:51:00,82.6,68.7,30.00,ESE,106,5.0,19.0,63,0.00,,CLR,0.00,VWS V14.01,2013-04-29 18:51:00,
2013-04-29 14:56:00,82.7,70.2,30.01,ESE,117,9.0,19.0,66,0.00,,CLR,0.00,VWS V14.01,2013-04-29 18:56:00,
2013-04-29 15:01:00,82.8,70.7,30.00,ESE,105,13.0,21.0,67,0.00,,SCT040,0.00,VWS V14.01,2013-04-29 19:01:00,
2013-04-29 15:06:00,82.9,70.4,30.00,SE,125,4.0,21.0,66,0.00,,SCT040,0.00,VWS V14.01,2013-04-29 19:06:00,
2013-04-29 15:11:00,82.9,70.4,30.00,ESE,121,12.0,21.0,66,0.00,,SCT040,0.00,VWS V14.01,2013-04-29 19:11:00,
2013-04-29 15:16:00,83.0,70.5,30.00,ESE,117,6.0,21.0,66,0.00,,SCT040,0.00,VWS V14.01,2013-04-29 19:16:00,
2013-04-29 15:21:00,83.1,71.0,29.99,ESE,116,10.0,21.0,67,0.00,,SCT040,0.00,VWS V14.01,2013-04-29 19:21:00,
2013-04-29 15:26:00,83.0,70.5,29.99,ESE,109,8.0,21.0,66,0.00,,SCT040,0.00,VWS V14.01,2013-04-29 19:26:00,
2013-04-29 15:31:00,82.7,70.6,29.99,ESE,115,7.0,21.0,67,0.00,,SCT040,0.00,VWS V14.01,2013-04-29 19:31:00,
2013-04-29 15:36:00,82.6,71.0,29.99,ESE,107,13.0,21.0,68,0.00,,SCT040,0.00,VWS V14.01,2013-04-29 19:36:00,
2013-04-29 15:41:00,82.5,70.9,29.99,SSE,155,6.0,21.0,68,0.00,,SCT040,0.00,VWS V14.01,2013-04-29 19:41:00,
2013-04-29 15:46:00,82.6,71.0,29.98,ESE,120,11.0,21.0,68,0.00,,SCT040,0.00,VWS V14.01,2013-04-29 19:46:00,
2013-04-29 15:51:00,82.3,70.7,29.98,ESE,112,14.0,21.0,68,0.00,,SCT040,0.00,VWS V14.01,2013-04-29 19:51:00,
2013-04-29 15:56:00,81.8,70.2,29.98,ESE,115,11.0,21.0,68,0.00,,SCT040,0.00,VWS V14.01,2013-04-29 19:56:00,
2013-04-29 16:01:00,81.7,70.6,29.98,SE,134,6.0,13.0,69,0.00,,FEW050,0.00,VWS V14.01,2013-04-29 20:01:00,
2013-04-29 16:06:00,81.8,70.6,29.98,SE,131,5.0,16.0,69,0.00,,FEW050,0.00,VWS V14.01,2013-04-29 20:06:00,
2013-04-29 16:11:00,81.9,70.7,29.97,ESE,121,10.0,17.0,69,0.00,,FEW050,0.00,VWS V14.01,2013-04-29 20:11:00,
2013-04-29 16:16:00,81.9,70.3,29.97,East,100,6.0,20.0,68,0.00,,FEW050,0.00,VWS V14.01,2013-04-29 20:16:00,
2013-04-29 16:21:00,81.5,70.4,29.98,SE,129,7.0,20.0,69,0.00,,FEW050,0.00,VWS V14.01,2013-04-29 20:21:00,
2013-04-29 16:26:00,81.3,70.2,29.98,SSE,149,8.0,20.0,69,0.00,,FEW050,0.00,VWS V14.01,2013-04-29 20:26:00,
2013-04-29 16:31:00,81.3,71.0,29.98,SE,127,9.0,20.0,71,0.00,,FEW050,0.00,VWS V14.01,2013-04-29 20:31:00,
2013-04-29 16:36:00,81.4,70.7,29.97,SE,134,12.0,20.0,70,0.00,,FEW050,0.00,VWS V14.01,2013-04-29 20:36:00,
2013-04-29 16:41:00,81.2,70.9,29.97,ESE,115,7.0,20.0,71,0.00,,FEW050,0.00,VWS V14.01,2013-04-29 20:41:00,
2013-04-29 16:46:00,81.1,72.4,29.97,SE,124,9.0,20.0,75,0.00,,FEW050,0.00,VWS V14.01,2013-04-29 20:46:00,
2013-04-29 16:51:00,81.2,70.9,29.96,SSE,150,10.0,20.0,71,0.00,,FEW050,0.00,VWS V14.01,2013-04-29 20:51:00,
2013-04-29 16:56:00,81.3,70.6,29.96,SSE,151,10.0,20.0,70,0.00,,FEW050,0.00,VWS V14.01,2013-04-29 20:56:00,
2013-04-29 17:01:00,81.3,70.2,29.97,SE,137,6.0,14.0,69,0.00,,CLR,0.00,VWS V14.01,2013-04-29 21:01:00,
2013-04-29 17:06:00,81.5,70.8,29.96,ESE,103,8.0,14.0,70,0.00,,CLR,0.00,VWS V14.01,2013-04-29 21:06:00,
2013-04-29 17:11:00,81.6,71.3,29.96,SE,146,5.0,20.0,71,0.00,,CLR,0.00,VWS V14.01,2013-04-29 21:11:00,
2013-04-29 17:16:00,81.6,70.9,29.96,ESE,112,12.0,20.0,70,0.00,,CLR,0.00,VWS V14.01,2013-04-29 21:16:00,
2013-04-29 17:21:00,81.5,69.9,29.96,ESE,115,10.0,20.0,68,0.00,,CLR,0.00,VWS V14.01,2013-04-29 21:21:00,
2013-04-29 17:26:00,81.4,70.3,29.96,SSE,149,14.0,20.0,69,0.00,,CLR,0.00,VWS V14.01,2013-04-29 21:26:00,
2013-04-29 17:31:00,81.2,69.6,29.96,SSE,150,3.0,20.0,68,0.00,,CLR,0.00,VWS V14.01,2013-04-29 21:31:00,
2013-04-29 17:36:00,81.0,69.0,29.96,SSE,149,7.0,20.0,67,0.00,,CLR,0.00,VWS V14.01,2013-04-29 21:36:00,
2013-04-29 17:41:00,80.9,68.9,29.96,SE,129,7.0,20.0,67,0.00,,CLR,0.00,VWS V14.01,2013-04-29 21:41:00,
2013-04-29 17:46:00,80.8,69.3,29.97,ESE,118,8.0,20.0,68,0.00,,CLR,0.00,VWS V14.01,2013-04-29 21:46:00,
2013-04-29 17:51:00,80.7,69.2,29.97,SSE,164,1.0,20.0,68,0.00,,CLR,0.00,VWS V14.01,2013-04-29 21:51:00,
2013-04-29 17:56:00,80.6,69.5,29.96,ESE,110,11.0,20.0,69,0.00,,CLR,0.00,VWS V14.01,2013-04-29 21:56:00,
2013-04-29 18:01:00,80.6,69.5,29.96,SSE,148,7.0,11.0,69,0.00,,CLR,0.00,VWS V14.01,2013-04-29 22:01:00,
2013-04-29 18:06:00,80.5,69.4,29.96,SSE,164,6.0,14.0,69,0.00,,CLR,0.00,VWS V14.01,2013-04-29 22:06:00,
2013-04-29 18:11:00,80.4,69.3,29.97,SE,133,10.0,18.0,69,0.00,,CLR,0.00,VWS V14.01,2013-04-29 22:11:00,
2013-04-29 18:16:00,80.4,69.7,29.97,SE,144,11.0,18.0,70,0.00,,CLR,0.00,VWS V14.01,2013-04-29 22:16:00,
2013-04-29 18:21:00,80.4,69.7,29.97,SE,144,7.0,18.0,70,0.00,,CLR,0.00,VWS V14.01,2013-04-29 22:21:00,
2013-04-29 18:26:00,80.4,70.1,29.97,SE,138,7.0,18.0,71,0.00,,CLR,0.00,VWS V14.01,2013-04-29 22:26:00,
2013-04-29 18:31:00,80.4,70.1,29.97,SE,142,10.0,18.0,71,0.00,,CLR,0.00,VWS V14.01,2013-04-29 22:31:00,
2013-04-29 18:36:00,80.2,69.9,29.97,SE,134,7.0,19.0,71,0.00,,CLR,0.00,VWS V14.01,2013-04-29 22:36:00,
2013-04-29 18:41:00,80.1,69.9,29.96,SSE,150,5.0,19.0,71,0.00,,CLR,0.00,VWS V14.01,2013-04-29 22:41:00,
2013-04-29 18:46:00,80.0,69.8,29.97,South,171,4.0,19.0,71,0.00,,CLR,0.00,VWS V14.01,2013-04-29 22:46:00,
2013-04-29 18:51:00,80.0,69.8,29.96,SE,137,5.0,19.0,71,0.00,,CLR,0.00,VWS V14.01,2013-04-29 22:51:00,
2013-04-29 18:56:00,79.8,70.0,29.97,ESE,119,10.0,19.0,72,0.00,,CLR,0.00,VWS V14.01,2013-04-29 22:56:00,
2013-04-29 19:01:00,79.7,69.9,29.97,SSE,148,6.0,8.0,72,0.00,,FEW034,0.00,VWS V14.01,2013-04-29 23:01:00,
2013-04-29 19:06:00,79.6,70.2,29.97,SSE,147,5.0,16.0,73,0.00,,FEW034,0.00,VWS V14.01,2013-04-29 23:06:00,
2013-04-29 19:11:00,79.5,70.5,29.97,South,172,4.0,16.0,74,0.00,,FEW034,0.00,VWS V14.01,2013-04-29 23:11:00,
2013-04-29 19:16:00,79.4,70.8,29.96,South,190,2.0,16.0,75,0.00,,FEW034,0.00,VWS V14.01,2013-04-29 23:16:00,
2013-04-29 19:21:00,79.3,71.1,29.96,South,177,2.0,16.0,76,0.00,,FEW034,0.00,VWS V14.01,2013-04-29 23:21:00,
2013-04-29 19:26:00,79.2,71.4,29.96,SE,144,4.0,16.0,77,0.00,,FEW034,0.00,VWS V14.01,2013-04-29 23:26:00,
2013-04-29 19:31:00,79.0,71.2,29.95,South,177,4.0,16.0,77,0.00,,FEW034,0.00,VWS V14.01,2013-04-29 23:31:00,
2013-04-29 19:36:00,78.8,71.0,29.96,South,176,3.0,16.0,77,0.00,,FEW034,0.00,VWS V14.01,2013-04-29 23:36:00,
2013-04-29 19:41:00,78.6,70.8,29.96,SSW,193,3.0,16.0,77,0.00,,FEW034,0.00,VWS V14.01,2013-04-29 23:41:00,
2013-04-29 19:46:00,78.4,70.6,29.96,South,180,5.0,16.0,77,0.00,,FEW034,0.00,VWS V14.01,2013-04-29 23:46:00,
2013-04-29 19:51:00,78.3,70.5,29.97,South,182,0.0,16.0,77,0.00,,FEW034,0.00,VWS V14.01,2013-04-29 23:51:00,
2013-04-29 19:56:00,78.1,70.3,29.96,South,176,5.0,16.0,77,0.00,,FEW034,0.00,VWS V14.01,2013-04-29 23:56:00,
2013-04-29 20:01:00,78.0,70.6,29.96,SE,145,4.0,6.0,78,0.00,,SCT029,0.00,VWS V14.01,2013-04-30 00:01:00,
2013-04-29 20:06:00,77.9,70.1,29.96,South,183,2.0,8.0,77,0.00,,SCT029,0.00,VWS V14.01,2013-04-30 00:06:00,
2013-04-29 20:11:00,77.7,70.3,29.95,SSE,168,3.0,8.0,78,0.00,,SCT029,0.00,VWS V14.01,2013-04-30 00:11:00,
2013-04-29 20:16:00,77.6,70.2,29.95,SSE,166,4.0,8.0,78,0.00,,SCT029,0.00,VWS V14.01,2013-04-30 00:16:00,
2013-04-29 20:21:00,77.5,70.5,29.96,South,180,2.0,8.0,79,0.00,,SCT029,0.00,VWS V14.01,2013-04-30 00:21:00,
2013-04-29 20:26:00,77.5,70.5,29.95,SSE,151,2.0,8.0,79,0.00,,SCT029,0.00,VWS V14.01,2013-04-30 00:26:00,
2013-04-29 20:31:00,77.4,70.4,29.96,South,171,1.0,8.0,79,0.00,,SCT029,0.00,VWS V14.01,2013-04-30 00:31:00,
2013-04-29 20:36:00,77.3,70.3,29.96,South,179,1.0,8.0,79,0.00,,SCT029,0.00,VWS V14.01,2013-04-30 00:36:00,
2013-04-29 20:41:00,77.2,70.2,29.96,South,175,1.0,8.0,79,0.00,,SCT029,0.00,VWS V14.01,2013-04-30 00:41:00,
2013-04-29 20:46:00,77.2,70.2,29.97,SSE,165,1.0,8.0,79,0.00,,SCT029,0.00,VWS V14.01,2013-04-30 00:46:00,
2013-04-29 20:51:00,77.2,69.8,29.98,SSE,158,3.0,8.0,78,0.00,,SCT029,0.00,VWS V14.01,2013-04-30 00:51:00,
2013-04-29 20:56:00,77.1,70.1,29.97,SSW,197,3.0,8.0,79,0.00,,SCT029,0.00,VWS V14.01,2013-04-30 00:56:00,
2013-04-29 21:01:00,77.1,70.1,29.98,SSW,198,4.0,4.0,79,0.00,,CLR,0.00,VWS V14.01,2013-04-30 01:01:00,
2013-04-29 21:06:00,77.1,69.7,29.97,South,171,0.0,5.0,78,0.00,,CLR,0.00,VWS V14.01,2013-04-30 01:06:00,
2013-04-29 21:11:00,77.1,69.7,29.97,SSE,152,3.0,5.0,78,0.00,,CLR,0.00,VWS V14.01,2013-04-30 01:11:00,
2013-04-29 21:16:00,77.0,69.6,29.98,SSE,160,3.0,5.0,78,0.00,,CLR,0.00,VWS V14.01,2013-04-30 01:16:00,
2013-04-29 21:21:00,77.0,70.0,29.98,South,181,5.0,5.0,79,0.00,,CLR,0.00,VWS V14.01,2013-04-30 01:21:00,
2013-04-29 21:26:00,77.0,69.6,29.98,South,183,6.0,6.0,78,0.00,,CLR,0.00,VWS V14.01,2013-04-30 01:26:00,
2013-04-29 21:31:00,76.9,69.9,29.99,South,186,0.0,6.0,79,0.00,,CLR,0.00,VWS V14.01,2013-04-30 01:31:00,
2013-04-29 21:36:00,76.8,69.4,29.98,SSW,199,0.0,6.0,78,0.00,,CLR,0.00,VWS V14.01,2013-04-30 01:36:00,
2013-04-29 21:41:00,76.7,69.7,29.98,SSW,193,0.0,6.0,79,0.00,,CLR,0.00,VWS V14.01,2013-04-30 01:41:00,
2013-04-29 21:46:00,76.7,70.1,29.99,South,189,0.0,6.0,80,0.00,,CLR,0.00,VWS V14.01,2013-04-30 01:46:00,
2013-04-29 21:51:00,76.6,69.6,30.00,SSW,198,0.0,6.0,79,0.00,,CLR,0.00,VWS V14.01,2013-04-30 01:51:00,
2013-04-29 21:56:00,76.6,69.6,29.99,SSW,197,0.0,6.0,79,0.00,,CLR,0.00,VWS V14.01,2013-04-30 01:56:00,
2013-04-29 22:01:00,76.5,69.5,30.00,SSW,195,0.0,0.0,79,0.00,,CLR,0.00,VWS V14.01,2013-04-30 02:01:00,
2013-04-29 22:06:00,76.5,69.9,29.99,SSW,192,0.0,0.0,80,0.00,,CLR,0.00,VWS V14.01,2013-04-30 02:06:00,
2013-04-29 22:11:00,76.5,69.5,29.99,SSW,198,0.0,0.0,79,0.00,,CLR,0.00,VWS V14.01,2013-04-30 02:11:00,
2013-04-29 22:16:00,76.4,69.4,29.99,SSW,197,0.0,0.0,79,0.00,,CLR,0.00,VWS V14.01,2013-04-30 02:16:00,
2013-04-29 22:21:00,76.4,69.4,30.00,SSW,195,0.0,0.0,79,0.00,,CLR,0.00,VWS V14.01,2013-04-30 02:21:00,
2013-04-29 22:26:00,76.4,69.4,30.00,SSW,194,0.0,0.0,79,0.00,,CLR,0.00,VWS V14.01,2013-04-30 02:26:00,
2013-04-29 22:31:00,76.3,69.3,30.00,SSW,198,0.0,0.0,79,0.00,,CLR,0.00,VWS V14.01,2013-04-30 02:31:00,
2013-04-29 22:36:00,76.3,69.3,30.00,SSW,197,0.0,0.0,79,0.00,,CLR,0.00,VWS V14.01,2013-04-30 02:36:00,
2013-04-29 22:41:00,76.2,69.6,30.00,SSW,197,0.0,0.0,80,0.00,,CLR,0.00,VWS V14.01,2013-04-30 02:41:00,
2013-04-29 22:46:00,76.1,69.5,30.00,SSW,197,0.0,0.0,80,0.00,,CLR,0.00,VWS V14.01,2013-04-30 02:46:00,
2013-04-29 22:51:00,76.0,69.4,30.01,SSW,196,0.0,0.0,80,0.00,,CLR,0.00,VWS V14.01,2013-04-30 02:51:00,
2013-04-29 22:56:00,76.0,69.4,30.00,SSW,196,0.0,0.0,80,0.00,,CLR,0.00,VWS V14.01,2013-04-30 02:56:00,
2013-04-29 23:01:00,75.8,69.6,30.00,SSW,195,0.0,0.0,81,0.00,,SCT025,0.00,VWS V14.01,2013-04-30 03:01:00,
2013-04-29 23:06:00,75.6,69.4,29.99,SSW,194,0.0,0.0,81,0.00,,SCT025,0.00,VWS V14.01,2013-04-30 03:06:00,
2013-04-29 23:11:00,75.5,69.6,30.00,SSW,193,0.0,0.0,82,0.00,,SCT025,0.00,VWS V14.01,2013-04-30 03:11:00,
2013-04-29 23:16:00,75.4,69.5,30.00,SSW,195,0.0,0.0,82,0.00,,SCT025,0.00,VWS V14.01,2013-04-30 03:16:00,
2013-04-29 23:21:00,75.3,69.4,29.99,SSW,196,0.0,0.0,82,0.00,,SCT025,0.00,VWS V14.01,2013-04-30 03:21:00,
2013-04-29 23:26:00,75.2,69.3,29.99,SSW,194,0.0,0.0,82,0.00,,SCT025,0.00,VWS V14.01,2013-04-30 03:26:00,
2013-04-29 23:31:00,75.1,69.2,29.99,SSW,198,0.0,0.0,82,0.00,,SCT025,0.00,VWS V14.01,2013-04-30 03:31:00,
2013-04-29 23:36:00,75.1,69.2,29.99,SSW,196,0.0,0.0,82,0.00,,SCT025,0.00,VWS V14.01,2013-04-30 03:36:00,
2013-04-29 23:41:00,75.0,69.5,29.99,South,187,0.0,0.0,83,0.00,,SCT025,0.00,VWS V14.01,2013-04-30 03:41:00,
2013-04-29 23:46:00,74.9,69.4,29.99,SSW,197,0.0,1.0,83,0.00,,SCT025,0.00,VWS V14.01,2013-04-30 03:46:00,
2013-04-29 23:51:00,74.8,69.3,29.99,SSW,198,0.0,1.0,83,0.00,,SCT025,0.00,VWS V14.01,2013-04-30 03:51:00,
2013-04-29 23:56:00,74.7,69.2,30.00,SW,215,0.0,3.0,83,0.00,,SCT025,0.00,VWS V14.01,2013-04-30 03:56:00,